Terminal Aerodrome Forecast
Issued by NWS

Home | Current Version | Previous Version | Text Only | Print | Product List | Glossary On
Versions: 1 2 3 4 5 6 7 8 9 10 11 12 13 14 15 16 17 18 19 20 21 22 23 24 25 26 27 28
000
FTUS45 KRIW 040540
TAFPNA
TAF
KPNA 040540Z 0406/0506 VRB06KT P6SM FEW110
     FM041600 21010KT P6SM FEW090
     FM041900 21015G23KT P6SM SCT090
     FM050100 VRB08G15KT P6SM VCTS SCT080CB BKN110
      AMD LTD TO CLD VIS AND WIND=

USA.gov is the U.S. government's official web portal to all federal, state and local government web resources and services.